TITAN 3C TRANSTAGE DEB, 28807

Orbit data source: Space-Track

TITAN 3C TRANSTAGE DEB, 28807 is space debris in HEO originally from a launch on Tue, 21 Dec 1965 UTC launched from the Air Force Eastern Test Range (AFETR). Debris objects in space refer to the collection of defunct objects orbiting the Earth. Examples of debris include non-operational satellites, rocket bodies, and fragments generated from explosions, collisions, or faulty payload assembly.

Loading next visibility...
Identifier
28807, 1965-108BZ
Orbit
HEO
Country
Flag of USUS
Related business
Manufacturer
Unknown
Mission
Spacecraft
Bus & Motor
Unknown
Mass
Unknown
Launch date (UTC)
1965-12-21 (61 years ago)
Launch vehicle
Unknown
Launch site
Air Force Eastern Test Range (AFETR)
Object type
Payload
Rocket body
Debris
Shape & HBR
Unknown shape, 1.1 m
Radar Cross Section
Medium (>0.1 m² and <1 m²)

Expand to show TLE details & history
Last TLE update: 3 months ago

TLE from 3 months ago
0 TITAN 3C TRANSTAGE DEB
1 28807U 65108BZ  26154.10155541  .00003597  00000-0  13747-1 0  9992
2 28807  25.3857 234.5406 6853536 204.0772  96.3876  2.70434511 41819
Epoch: 2026-06-03T02:26Z
TLE epoch observation values (Epoch: 2026-06-03T02:26:14.387Z)
Latitude
0.00019°
Longitude
-53.53735°
Altitude
24,479.151 km
Speed
2.742 km/s
True Right ascension
15h 38m 21s
True Declination
0° 00' 01"
Sunlit
Object was in daylight at epoch
Visualization orbit readout
Latitude
Unknown
Longitude
Unknown
Altitude
Unknown
Speed
Unknown
Apparent Right ascension
Unknown
Apparent Declination
Unknown
Sunlit
N/A
Visualization observer readout
Local Sidereal Time
21:15:31
Azimuth
Unknown
Elevation
Unknown
Doppler factor
Unknown
Orbital elements
Apogee altitude
30,304.523 km
Perigee altitude
470.317 km
Semi-major axis
21,765.557 km
Eccentricity
0.68535
Inclination
25.3857°
RAAN
234.5406°
Arg. of periapsis
204.0772°
True anomaly
155.95754°
Mean anomaly
96.3876°
Eccentric anomaly
127.52885°
Mean motion
0.67591 °/min
Orbital period
532.62 mins
BSTAR
0.013747
Loading maneuver chart data...
Computing Atmospheric mass density...

Documentation

Showing up to 5 results
|